Regional Weather Roundup
Issued by NWS

Home | Current Version | Previous Version | Graphics & Text | Print | Product List | Glossary On
Versions: 1 2 3 4 5 6 7 8 9 10 11 12 13 14 15 16 17 18 19 20 21 22 23 24 25 26 27 28 29 30 31 32 33 34 35 36 37 38 39 40 41 42 43 44 45 46 47 48 49 50
000
ASUS43 KMPX 240701
RWRMN
WEATHER ROUNDUP FOR MINNESOTA
NATIONAL WEATHER SERVICE TWIN CITIES/CHANHASSEN MN
200 AM CDT FRI MAR 24 2017


NOTE: "FAIR" INDICATES FEW OR NO CLOUDS BELOW 12,000 FEET WITH NO
SIGNIFICANT WEATHER AND/OR OBSTRUCTIONS TO VISIBILITY. N/A MEANS
CURRENT SKY AND/OR WEATHER CONDITIONS ARE NOT AVAILABLE.

MNZ060>063-068>070-240800-
   Twin Cities Metro

CITY           SKY/WX    TMP DP  RH WIND       PRES   REMARKS
TWIN CITIES    CLOUDY    39  36  89 E6        29.85F FOG
ST PAUL        CLOUDY    39  38  96 CALM      29.87F
CRYSTAL        CLOUDY    38  36  92 CALM      29.85F FOG
BLAINE         CLOUDY    39  39 100 CALM      29.86F FOG
LAKEVILLE      CLOUDY    36  36 100 E5        29.85S FOG
EDEN PRAIRIE   CLOUDY    39  37  92 NE7       29.83F FOG
SOUTH ST PAUL  CLOUDY    38  38  97 CALM      29.85F FOG
LAKE ELMO      CLOUDY    37  37 100 CALM      29.86F FOG
$$
MNZ001>005-007-008-013>017-022>024-027-028-240800-
   Northwest Minnesota

CITY           SKY/WX    TMP DP  RH WIND       PRES   REMARKS
BEMIDJI        CLOUDY    32  32 100 CALM      29.88R FOG
HALLOCK        CLEAR     34  30  86 N10       29.92S WCI  26
ROSEAU         PTCLDY    34  28  80 N7        29.90F HAZE    WCI  28
WARROAD        CLOUDY    36  30  80 N8        29.91F
THIEF RVR FALL CLOUDY    33  32  96 N7        29.92R FOG     WCI  27
CROOKSTON      PTCLDY    30  30 100 N6        29.91F FOG     WCI  24
FOSSTON        CLOUDY    30  30 100 CALM      29.89F FOG
DETROIT LAKES  CLOUDY    34  34 100 CALM      29.90R FOG
MOORHEAD       CLOUDY    34  34 100 CALM      29.92R FOG
PARK RAPIDS    CLOUDY    34  31  88 CALM      29.88S
MAHNOMEN       CLOUDY    32  32  99 E3        29.89R
$$
MNZ006-009>011-018-025>026-240800-
   North Central Minnesota

CITY           SKY/WX    TMP DP  RH WIND       PRES   REMARKS
BAUDETTE       CLOUDY    33  32  96 CALM      29.89R
FLAG ISLAND    CLOUDY    34  30  86 NW9       29.91R WCI  26
INTL FALLS     CLOUDY    34  32  92 CALM      29.88F
WASKISH        CLOUDY    34  32  93 CALM      29.89F FOG
BIG FORK       CLOUDY    34  32  93 CALM      29.89F FOG
LONGVILLE      CLOUDY    32  32 100 E3        29.87F FOG
GRAND RAPIDS   CLOUDY    32  31  96 CALM      29.91S FOG
CRANE LAKE     CLOUDY    30  30 100 CALM      29.90F FOG
ORR            CLOUDY    32  30  93 CALM      29.86F FOG
COOK           CLOUDY    32  32 100 CALM      29.90F FOG
WALKER         CLOUDY    32  32  99 CALM      29.87F FOG
$$
MNZ012-019>021-037-240800-
   Northeast Minnesota

CITY           SKY/WX    TMP DP  RH WIND       PRES   REMARKS
DULUTH         DRIZZLE   33  31  92 CALM      29.89R FOG
ELY            CLOUDY    32  32 100 CALM      29.88F FOG
HIBBING        CLOUDY    32  32 100 CALM      29.89S FOG
EVELETH        CLOUDY    32  31  96 CALM      29.89F FOG
DULUTH HARBOR  CLOUDY    34  34 100 CALM      29.93R FOG
TWO HARBORS    CLOUDY    36  30  80 CALM      29.90R HAZE
SILVER BAY     CLOUDY    34  34 100 CALM      29.89R FOG
GRAND MARAIS     N/A     33  32  96 CALM      29.89F
G MARAIS ARPRT MIX PCPN  28  27  93 CALM      29.85F
$$
MNZ029>031-032-039>041-046>048-054>057-064-240800-
   West Central Minnesota

CITY           SKY/WX    TMP DP  RH WIND       PRES   REMARKS
FERGUS FALLS   CLOUDY    34  34 100 E3        29.92R
WHEATON        CLOUDY    34  34 100 N6        29.90S FOG     WCI  29
MORRIS           N/A     34  34 100 N7        29.85S FOG     WCI  28
ALEXANDRIA     CLOUDY    34  33  96 NE7       29.85F FOG     WCI  28
ELBOW LAKE     CLOUDY    33  33 100 CALM      29.87S FOG
WADENA         CLOUDY    32  32 100 NE3       29.87S FOG
GLENWOOD       CLOUDY    34  34 100 NE8       29.85S FOG     WCI  27
APPLETON       CLOUDY    36  34  93 CALM      29.86R FOG
BENSON         CLOUDY    37  34  87 CALM      29.87R FOG
ORTONVILLE     CLOUDY    34  32  93 N5        29.86R FOG     WCI  30
MADISON        CLOUDY    37  37 100 N5        29.86R FOG
WILLMAR        CLOUDY    36  36 100 NE5       29.85R FOG
$$
MNZ033>034-036-042>043-049>051-058-059-240800-
   Central Minnesota

CITY           SKY/WX    TMP DP  RH WIND       PRES   REMARKS
ST CLOUD       CLOUDY    35  35 100 NE5       29.85S FOG     WCI  31
SAUK CENTRE    CLOUDY    33  33  99 NE6       29.86R FOG     WCI  28
PAYNESVILLE      N/A     35  35 100 CALM      29.86R FOG
AITKIN         MIX PCPN  36  30  80 CALM      29.89R
PINE RIVER     MIX PCPN  32  32 100 E6        29.90F WCI  26
BRAINERD       LGT RAIN  33  32  96 NE6       29.89R FOG     WCI  28
STAPLES        DRIZZLE   32  32 100 NE3       29.87F
LONG PRAIRIE   CLOUDY    32  32 100 N7        29.86S FOG     WCI  26
LITTLE FALLS   MIX PCPN  32  32 100 CALM      29.88S
LITCHFIELD     CLOUDY    37  37 100 E3        29.83F FOG
BUFFALO        CLOUDY    36  35  95 NE5       29.84F FOG
MAPLE LAKE     CLOUDY    37  37  99 SE3       29.84F FOG
HUTCHINSON     CLOUDY    37  37 100 E6        29.82F FOG
$$
MNZ037-044-045-052-053-240800-
   East Central Minnesota

CITY           SKY/WX    TMP DP  RH WIND       PRES   REMARKS
PRINCETON      CLOUDY    37  36  93 N5        29.87R FOG
MORA           CLOUDY    34  32  93 NE3       29.90S FOG
CAMBRIDGE      CLOUDY    37  34  87 CALM      29.85S HAZE
RUSH CITY      CLOUDY    34  33  96 NE3       29.88S FOG
MOOSE LAKE     CLOUDY    32  32 100 NE3       29.88S FOG
HINCKLEY       CLOUDY    34  34 100 N3        29.90F FOG
CLOQUET        CLOUDY    32  30  93 CALM      29.89R FOG
MCGREGOR       CLOUDY    32  32 100 CALM      29.90S
$$
MNZ071>073-080-081-089-090-097-098-240800-
   Southwest Minnesota

CITY           SKY/WX    TMP DP  RH WIND       PRES   REMARKS
MONTEVIDEO     CLOUDY    36  36 100 E6        29.86R FOG
GRANITE FALLS  CLOUDY    37  37  97 NE5       29.85R FOG
CANBY          FOG       36  36  99 CALM      29.85R VSB 1
MARSHALL       MIX PCPN  36  36 100 NE3       29.83R FOG
REDWOOD FALLS  LGT RAIN  39  36  89 E6        29.81R FOG
OLIVIA         CLOUDY    36  36 100 N6        29.81R FOG
PIPESTONE      DRIZZLE   37  34  87 E6        29.79R
WINDOM         HVY RAIN  37  37 100 E5        29.81R
WORTHINGTON    LGT RAIN  37  36  96 E13       29.76F FOG
JACKSON        LGT SNOW  37  36  93 NE6       29.81R
TRACY          LGT RAIN  38  37  97 CALM      29.82S
SLAYTON        LGT RAIN  36  35  98 N6        29.80F
$$
MNZ065>067-074>077-082>085-091>093-240800-
   South Central Minnesota

CITY           SKY/WX    TMP DP  RH WIND       PRES   REMARKS
MANKATO        LGT RAIN  39  37  92 NE8       29.82F
NEW ULM        LGT RAIN  39  37  93 NE7       29.82R
ST JAMES       RAIN      39  37  93 CALM      29.83F
FAIRMONT       LGT RAIN  40  39  97 N7        29.80F FOG
GLENCOE        CLOUDY    38  39 100 E6        29.83S FOG
FARIBAULT      CLOUDY    37  36  93 N6        29.83S
OWATONNA       CLOUDY    39  36  87 NE3       29.85R
WASECA         CLOUDY    39  36  87 E7        29.85R
ALBERT LEA     MIX PCPN  39  39 100 NW5       29.82R
$$
MNZ078>079-086>088-094>096-240800-
   Southeast Minnesota

CITY           SKY/WX    TMP DP  RH WIND       PRES   REMARKS
ROCHESTER      LGT RAIN  40  38  93 N6        29.82R
RED WING       CLOUDY    39  34  81 NE5       29.85F
STANTON        CLOUDY    39  36  87 NE6       29.83F
DODGE CENTER   CLOUDY    39  37  93 CALM      29.83R
WINONA         TSTM      39  34  81 SE3       29.84F
AUSTIN         TSTM      41  37  87 S12G17    29.79R
PRESTON        CLOUDY    39  36  90 SE10      29.77F
$$
ABBREVIATIONS USED IN REMARKS
   TC - TEMPERATURES IN CELSIUS
  WCI - WIND CHILL INDEX
   HX - HEAT INDEX
  VSB - VISIBILITY
$$




USA.gov is the U.S. government's official web portal to all federal, state and local government web resources and services.